SQ7ACP-3 Weather Reports


time (UTC)temp
F
wind
direction
speed
knots
gust
knots
rain 1hr
in
rain 24hr
in
rain mn
in
humidity
%
barometer
mb
20260504001051 51 192 0.0 0.0 0.00 0.00 0.00 69 1013.7
20260503235027 53 190 0.0 0.0 0.00 0.00 0.00 70 1013.8
20260503234027 53 186 0.0 0.0 0.00 0.00 0.00 66 1013.8
20260503233017 52 198 0.0 0.0 0.00 0.00 0.00 68 1013.8
20260503232014 52 186 0.9 0.9 0.00 0.00 0.00 71 1013.8
20260503231002 53 198 0.9 0.9 0.00 0.00 0.00 72 1013.8
20260503225949 54 192 0.9 0.9 0.00 0.00 0.00 70 1013.8
20260503224938 54 180 1.7 1.7 0.00 0.00 0.00 68 1013.8
20260503223924 55 186 0.9 0.9 0.00 0.00 0.00 69 1013.8
20260503222911 55 192 1.7 1.7 0.00 0.00 0.00 69 1013.9
20260503221859 55 183 1.7 1.7 0.00 0.00 0.00 68 1013.9
20260503220847 56 180 1.7 1.7 0.00 0.00 0.00 68 1013.9
20260503215834 56 189 1.7 1.7 0.00 0.00 0.00 67 1013.9
20260503214835 56 184 0.9 0.9 0.00 0.00 0.00 65 1013.9
20260503213821 56 192 0.0 0.0 0.00 0.00 0.00 64 1013.9
20260503212821 56 191 0.0 0.0 0.00 0.00 0.00 63 1013.8
20260503211809 57 206 0.9 0.9 0.00 0.00 0.00 62 1013.8
20260503210756 58 204 0.0 0.0 0.00 0.00 0.00 59 1013.8
20260503205756 59 204 0.0 0.0 0.00 0.00 0.00 56 1013.8
20260503204744 60 186 0.9 0.9 0.00 0.00 0.00 55 1013.8
20260503203732 60 179 1.7 1.7 0.00 0.00 0.00 54 1013.8
20260503202733 60 184 1.7 1.7 0.00 0.00 0.00 52 1013.8
20260503201719 60 189 0.0 0.0 0.00 0.00 0.00 54 1013.7
20260503200707 61 185 1.7 1.7 0.00 0.00 0.00 52 1013.7
20260503195707 62 190 0.0 0.0 0.00 0.00 0.00 49 1013.8
20260503194655 63 193 0.0 0.0 0.00 0.00 0.00 48 1013.8
20260503193654 63 192 0.0 0.0 0.00 0.00 0.00 48 1013.8
20260503192642 64 197 0.0 0.0 0.00 0.00 0.00 46 1013.8
20260503191629 64 197 0.0 0.0 0.00 0.00 0.00 44 1013.6
20260503190616 65 197 0.0 0.0 0.00 0.00 0.00 43 1013.6
20260503185604 66 197 0.0 0.0 0.00 0.00 0.00 41 1013.6
20260503184604 67 197 0.0 0.0 0.00 0.00 0.00 40 1013.5
20260503183552 68 197 0.0 0.0 0.00 0.00 0.00 38 1013.5
20260503182551 69 197 0.0 0.0 0.00 0.00 0.00 37 1013.5
20260503181551 70 198 0.0 0.0 0.00 0.00 0.00 35 1013.4
20260503180539 71 198 0.0 0.0 0.00 0.00 0.00 33 1013.4
20260503175527 72 196 0.0 0.0 0.00 0.00 0.00 32 1013.3
20260503174514 73 198 0.0 0.0 0.00 0.00 0.00 32 1013.2
20260503173502 74 180 1.7 1.7 0.00 0.00 0.00 30 1013.2
20260503172502 74 205 0.0 0.0 0.00 0.00 0.00 30 1013.2
20260503171449 75 193 2.6 2.6 0.00 0.00 0.00 29 1013.2
20260503170449 75 198 0.9 0.9 0.00 0.00 0.00 28 1013.2
20260503150333 78 187 5.2 5.2 0.00 0.00 0.00 24 1013.6
20260503131128 79 150 3.5 3.5 0.00 0.00 0.00 24 1015.0
20260503130128 79 210 5.2 7.0 0.00 0.00 0.00 25 1015.1
20260503080820 68 191 2.6 2.6 0.00 0.00 0.00 39 1017.6
20260503072807 66 182 2.6 2.6 0.00 0.00 0.00 40 1017.7
20260503071754 66 190 3.5 3.5 0.00 0.00 0.00 42 1017.7
20260503054652 55 203 0.9 0.9 0.00 0.00 0.00 61 1018.1
20260503053652 53 186 1.7 1.7 0.00 0.00 0.00 65 1018.1
20260503052639 51 186 0.9 0.9 0.00 0.00 0.00 68 1018.2
20260503051639 50 186 0.9 0.9 0.00 0.00 0.00 73 1018.2
20260503050630 48 204 0.0 0.0 0.00 0.00 0.00 76 1018.2
20260503045614 46 216 0.0 0.0 0.00 0.00 0.00 79 1018.3
20260503044602 46 216 0.0 0.0 0.00 0.00 0.00 80 1018.4
20260503043549 45 216 0.0 0.0 0.00 0.00 0.00 82 1018.4
20260503042549 44 216 0.0 0.0 0.00 0.00 0.00 84 1018.2
20260503041537 43 216 0.0 0.0 0.00 0.00 0.00 85 1018.2
20260503040524 42 216 0.0 0.0 0.00 0.00 0.00 87 1018.2
20260503035524 42 216 0.0 0.0 0.00 0.00 0.00 88 1018.2
20260503034512 41 216 0.0 0.0 0.00 0.00 0.00 88 1018.2
20260503033511 41 216 0.0 0.0 0.00 0.00 0.00 88 1018.3
20260503032503 41 216 0.0 0.0 0.00 0.00 0.00 87 1018.2
20260503031459 41 216 0.0 0.0 0.00 0.00 0.00 87 1018.2
20260503030500 42 210 0.0 0.0 0.00 0.00 0.00 87 1018.2
20260503025459 42 204 0.0 0.0 0.00 0.00 0.00 87 1018.2
20260503024459 42 204 0.0 0.0 0.00 0.00 0.00 86 1018.1
20260503023447 42 204 0.0 0.0 0.00 0.00 0.00 86 1018.2
20260503022435 42 204 0.0 0.0 0.00 0.00 0.00 86 1018.2
20260503021421 43 204 0.0 0.0 0.00 0.00 0.00 84 1018.2
20260503020409 44 204 0.0 0.0 0.00 0.00 0.00 83 1018.3
20260503015409 44 204 0.0 0.0 0.00 0.00 0.00 83 1018.4
20260503014357 45 204 0.0 0.0 0.00 0.00 0.00 81 1018.4
20260503013357 45 204 0.0 0.0 0.00 0.00 0.00 82 1018.5
20260503012356 45 204 0.0 0.0 0.00 0.00 0.00 81 1018.4
20260503011344 45 204 0.0 0.0 0.00 0.00 0.00 81 1018.4
20260503010332 46 204 0.0 0.0 0.00 0.00 0.00 80 1018.3
20260503005322 46 204 0.0 0.0 0.00 0.00 0.00 80 1018.4
20260503004307 46 204 0.0 0.0 0.00 0.00 0.00 80 1018.5
20260503003254 46 204 0.0 0.0 0.00 0.00 0.00 79 1018.4
20260503002254 46 204 0.0 0.0 0.00 0.00 0.00 79 1018.5